Hourly Data Report for June 16, 2017

BORDEN AWOS
ONTARIO

44°16'20.000" N
79°54'42.000" W
222.50 m
611B002
71534
YBN

Download Data

Hourly Data (June 2017)
Hourly Data Report for June 16, 2017
TIME
LST
Temp Definition
°C
Dew Point Definition
°C
Rel Hum Definition
%
Precip. Amount Definition
mm

Wind Dir Definition
10's deg

Wind Spd Definition
km/h
Visibility Definition
km
Stn Press Definition
kPa
Hmdx Definition


Wind Chill Definition


Weather Definition


00:00 16.3 15.7 96   12 4 8.0 98.29     LegendNANA
01:00 16.3 15.7 96   14 6 8.0 98.26     LegendNANA
02:00 15.9 15.4 97   16 4 4.8 98.21     LegendNANA
03:00 15.4 15.0 98   15 6 3.4 98.21     LegendNANA
04:00 15.6 15.1 97   16 11 3.9 98.19     LegendNANA
05:00 15.1 14.9 99   18 6 3.9 98.25     LegendNANA
06:00 16.8 16.1 96   16 6 6.4 98.26     LegendNANA
07:00
08:00 21.4 18.3 82   14 7 12.9 98.27 28   LegendNANA
09:00 23.4 19.6 79   15 7 14.5 98.29 31   LegendNANA
10:00 26.8 18.3 60   26 11 14.5 98.26 33   LegendNANA
11:00 28.4 16.7 49   25 22 14.5 98.27 33   LegendNANA
12:00 28.8 15.4 44   25 15 14.5 98.27 33   LegendNANA
13:00 29.1 14.2 40   28 17 14.5 98.26 33   LegendNANA
14:00 29.6 14.0 38   31 15 14.5 98.24 33   LegendNANA
15:00 29.6 13.8 38   30 13 14.5 98.21 33   LegendNANA
16:00 28.8 13.4 39   27 7 14.5 98.20 32   LegendNANA
17:00 27.8 15.2 46   4 7 14.5 98.18 32   LegendNANA
18:00 27.5 15.7 49   3 6 14.5 98.15 32   LegendNANA
19:00 24.7 18.2 67   3 4 14.5 98.18 31   LegendNANA
20:00 22.9 18.6 77   27 4 14.5 98.19 29   LegendNANA
21:00 22.6 16.9 70   19 7 14.5 98.26 28   LegendNANA
22:00 21.4 16.8 75   22 6 14.5 98.28 27   LegendNANA
23:00 20.7 17.1 80   18 4 14.5 98.30 26   LegendNANA

Notes on Data Quality.

Legend

  • E = Estimated
  • M = Missing
  • NA = Not Available*
  • [empty] = Indicates an unobserved value
Date modified: